Location: Risskov
(56.1972°N, 10.2480°E)
Time: 13:19:54
(UTC+00:00)

GP-B - Pass Details

Date: 05 July 2020
Orbit: 631 x 635 km, 89.8° (Epoch: 06 August)

Event Time Altitude Azimuth Distance (km) Brightness Sun altitude
Rises 22:01:06 0° 5° (N) 2,947 7.9 -9.2°
Reaches altitude 10° 22:03:29 10° 13° (NNE) 2,032 6.7 -9.3°
Maximum altitude 22:07:39 38° 82° (E) 982 4.0 -9.5°
Enters shadow 22:11:24 12° 149° (SSE) 1,874 4.9 -9.7°
